Flag for Germany Past Weather in Bad Neuenahr-Ahrweiler, Rhineland-Palatinate, Germany — Yesterday and Last 2 Weeks

Now
55 °F

Overcast.


Feels Like: 55 °F
Forecast: 48 / 72 °F
Wind: 2 mph from West

Location: Aachen-Orsbach

Current Time: May 25, 2016 at 3:03:57 PM

Latest Report: May 25, 2016 at 1:00 PM


Visibility: 9 mi

Pressure: 29.99 "Hg

Humidity: 74%

Dew Point: 47 °F

Location of Bad Neuenahr-AhrweilerLocation

Past Weather in Bad Neuenahr-Ahrweiler — Graph

°F

Bad Neuenahr-Ahrweiler Temperature Yesterday

Maximum temperature yesterday: 53 °F (at 6:00 PM)
Minimum temperature yesterday: 47 °F (at 7:00 AM)
Average temperature yesterday: 50 °F

High & Low Weather Summary for the Past Weeks

 TemperatureHumidityPressure
High72 °F (May 21, 6:00 PM)97% (May 23, 6:00 AM)30.17 "Hg (May 23, 6:00 AM)
Low39 °F (May 15, 12:00 AM)33% (May 13, 7:00 PM)29.44 "Hg (May 12, 6:00 PM)
Average55 °F73%29.88 "Hg
* Reported May 10 1:00 PM — May 25 1:00 PM, Bad Neuenahr-Ahrweiler, Weather by CustomWeather, © 2016

Note: Actual official high and low records may vary slightly from our data, if they occured in-between our weather recording intervals... More about our weather records

Advertising

Bad Neuenahr-Ahrweiler Weather History for the Previous 24 Hours

Scroll right to see more
 ConditionsComfort  
Time TempWeatherWind HumidityBarometerVisibility
1:00 PM
Wed, May 25
55 °FOvercast.2 mph74%29.99 "Hg9 mi
12:00 PM53 °FOvercast.1 mph78%30.00 "Hg11 mi
11:00 AMN/APassing clouds.9 mphN/AN/A13 mi
10:00 AM49 °FOvercast.1 mph85%30.00 "Hg9 mi
9:00 AM48 °FOvercast.1 mph91%30.01 "Hg7 mi
7:00 AM46 °FOvercast.1 mph94%30.00 "Hg5 mi
6:00 AM45 °FOvercast.1 mph95%30.01 "Hg7 mi
4:00 AM46 °FOvercast.1 mph95%30.01 "Hg4 mi
3:00 AM46 °FOvercast.1 mph89%30.01 "Hg9 mi
1:00 AM48 °FOvercast.1 mph86%30.03 "Hg5 mi
12:00 AM49 °FOvercast.2 mph84%30.03 "Hg12 mi
10:00 PM
Tue, May 24
51 °FOvercast.3 mph79%30.02 "Hg12 mi
9:00 PM53 °FOvercast.3 mph75%30.01 "Hg15 mi
7:00 PM53 °FOvercast.2 mph71%30.01 "Hg19 mi
6:00 PM53 °FOvercast.2 mph71%30.02 "Hg19 mi
4:00 PM53 °FOvercast.5 mph69%30.03 "Hg16 mi
3:00 PM53 °FOvercast.5 mph74%30.04 "Hg16 mi
Weather by CustomWeather, © 2016

See weather overviewHow to use our weather pages